Home   Weather   Faro   Past weeks

Flag for Portugal Past Weather in Faro, Portugal — Yesterday and Last 2 Weeks

Now
61 °F

Sunny.


Feels Like: 61 °F
Forecast: 57 / 64 °F
Wind: 16 mph from East

Location: Faro / Aeroporto

Current Time: Dec 8, 2016 at 11:59:27 am

Latest Report: Dec 8, 2016 at 11:30 am


Visibility: 10 mi

Pressure: 30.33 "Hg

Humidity: 72%

Dew Point: 52 °F

Location of FaroLocation

Past Weather in Faro — Graph

°F

Faro Temperature Yesterday

Maximum temperature yesterday: 66 °F (at 1:00 pm)
Minimum temperature yesterday: 57 °F (at 1:30 am)
Average temperature yesterday: 61 °F

High & Low Weather Summary for the Past Weeks

 TemperatureHumidityPressure
High70 °F (Dec 5, 3:00 pm)100% (Nov 26, 6:00 am)30.36 "Hg (Nov 26, 6:00 am)
Low45 °F (Nov 24, 6:00 am)45% (Nov 23, 4:30 pm)29.56 "Hg (Nov 27, 4:30 am)
Average59 °F84%29.92 "Hg
* Reported Nov 23 10:00 am — Dec 8 10:30 am, Faro, Weather by CustomWeather, © 2016

Note: Actual official high and low records may vary slightly from our data, if they occured in-between our weather recording intervals... More about our weather records

Advertising

Faro Weather History for the Previous 24 Hours

Scroll right to see more
 ConditionsComfort  
Time TempWeatherWind HumidityBarometerVisibility
10:30 am
Thu, Dec 8
59 °FPassing clouds.14 mph77%30.36 "HgN/A
10:00 am59 °FPassing clouds.16 mph77%30.36 "HgN/A
9:30 am59 °FScattered clouds.14 mph77%30.36 "HgN/A
9:00 am57 °FScattered clouds.14 mph82%30.33 "HgN/A
8:30 am57 °FPassing clouds.13 mph77%30.33 "HgN/A
8:00 am55 °FPassing clouds.14 mph82%30.33 "HgN/A
7:30 am55 °FPassing clouds.14 mph82%30.33 "HgN/A
7:00 am55 °FClear.14 mph82%30.33 "Hg10 mi
6:30 am55 °FClear.12 mph82%30.33 "Hg10 mi
6:00 am55 °FClear.12 mph82%30.33 "Hg10 mi
5:30 am57 °FClear.12 mph82%30.33 "Hg10 mi
5:00 am59 °FClear.14 mph77%30.30 "Hg10 mi
4:30 am59 °FClear.15 mph77%30.30 "Hg10 mi
4:00 am57 °FClear.9 mph82%30.30 "Hg10 mi
3:30 am59 °FClear.10 mph77%30.30 "Hg10 mi
3:00 am59 °FClear.12 mph82%30.30 "Hg10 mi
2:30 am61 °FClear.17 mph72%30.30 "Hg10 mi
1:30 am61 °FClear.17 mph77%30.30 "Hg10 mi
1:00 am61 °FClear.17 mph77%30.30 "Hg10 mi
12:30 am61 °FClear.17 mph77%30.33 "Hg10 mi
12:00 am61 °FClear.15 mph77%30.33 "Hg10 mi
11:30 pm
Wed, Dec 7
61 °FClear.14 mph77%30.33 "Hg10 mi
11:00 pm61 °FClear.13 mph83%30.33 "Hg10 mi
10:30 pm61 °FClear.16 mph83%30.33 "Hg10 mi
10:00 pm61 °FClear.17 mph83%30.33 "Hg10 mi
9:30 pm61 °FClear.13 mph83%30.33 "Hg10 mi
9:00 pm59 °FClear.8 mph88%30.33 "Hg10 mi
8:30 pm61 °FClear.8 mph88%30.33 "Hg10 mi
8:00 pm61 °FClear.7 mph88%30.33 "Hg10 mi
7:30 pm59 °FClear.8 mph94%30.33 "Hg10 mi
7:00 pm59 °FClear.8 mph88%30.33 "Hg10 mi
6:30 pm61 °FClear.6 mph83%30.33 "Hg10 mi
6:00 pm61 °FClear.8 mph88%30.30 "Hg10 mi
5:30 pm63 °FClear.8 mph83%30.30 "Hg10 mi
5:00 pm63 °FSunny.8 mph83%30.30 "Hg10 mi
4:30 pm64 °FSunny.10 mph78%30.30 "Hg10 mi
4:00 pm64 °FSunny.10 mph78%30.30 "Hg10 mi
3:30 pm64 °FPassing clouds.12 mph83%30.30 "HgN/A
3:00 pm66 °FPassing clouds.14 mph78%30.30 "HgN/A
2:30 pm66 °FPassing clouds.13 mph73%30.27 "HgN/A
2:00 pm64 °FPassing clouds.12 mph78%30.30 "HgN/A
1:30 pm66 °FPassing clouds.13 mph78%30.30 "HgN/A
1:00 pm66 °FPassing clouds.10 mph78%30.30 "HgN/A
12:30 pm64 °FPassing clouds.10 mph83%30.33 "HgN/A
12:00 pm64 °FPassing clouds.10 mph83%30.33 "HgN/A
11:30 am64 °FSunny.12 mph83%30.33 "Hg10 mi
11:00 am63 °FSunny.12 mph88%30.33 "Hg10 mi
Weather by CustomWeather, © 2016

See weather overviewHow to use our weather pages